TIANMU-1 17

Last updated on Thu Oct 30 2025 00:02:23 GMT+0000 (Coordinated Universal Time)

1 58702U 24004C 25302.50351980 .00008514 00000+0 35808-3 0 9999 2 58702 97.4631 123.9793 0006315 86.0478 274.1480 15.23630732100601
UTC large
Height (km)
Speed (km/s)
/
Latitude / Longitude
Inclination (degrees)
Orbital Period (minutes)
Azimuth
Elevation
Range (km)
Doppler Factor

Next 0 passes for location: London (51.5072 / 0.1276)

Sorry there are no passes over London.